Reno, NV (89501)

6:59 PM PDT on August 16, 2017 (GMT -0700)
UNR Campus, LMR Roof | | Change Station

Elev 4570 ft 39.54 °N, 119.81 °W | Updated 44 seconds ago

Scattered Clouds
Scattered Clouds
84.6 °F
Feels Like 82 °F
N
6.0
Wind Variable Wind from NNW
Gusts 0.0 mph

Today
High -- | Low -- °F
--% Chance of Precip.
Yesterday
High -- | Low -- °F
Precip. -- in
Pressure 29.85 in
Visibility 10.0 miles
Clouds Scattered Clouds 8000 ft
Scattered Clouds 12000 ft
Scattered Clouds 23000 ft
Heat Index 82 °F
Dew Point 40 °F
Humidity 21%
Rainfall 0.00 in
Snow Depth Not available.
6:12 AM 7:53 PM
Waning Crescent, 27% visible
METAR KRNO 170155Z 01010KT 10SM SCT080 SCT120 SCT230 31/03 A3002 RMK AO2 LTG DSNT SW SLP107 CB DSNT SW T03110028
Pressure 29.85 in
Visibility 10.0 miles
Clouds Scattered Clouds 8000 ft
Scattered Clouds 12000 ft
Scattered Clouds 23000 ft
Heat Index 82 °F
Dew Point 40 °F
Humidity 21%
Rainfall 0.00 in
Snow Depth Not available.
6:12 AM 7:53 PM
Waning Crescent, 27% visible
METAR KRNO 170155Z 01010KT 10SM SCT080 SCT120 SCT230 31/03 A3002 RMK AO2 LTG DSNT SW SLP107 CB DSNT SW T03110028

Get Severe Weather Alerts

Thanks for signing up!

Be on the lookout for a verification email in your inbox.

You'll start receiving the daily forecast at 6 AM.

×

10-Day Weather Forecast

Almanac

Astronomy

Aug. 16, 2017 Rise Set
Actual Time
Civil Twilight
Nautical Twilight
Astronomical Twilight
Moon
Length of Visible Light
Length of Day
Tomorrow will be .
, % of the Moon is Illuminated

Today's Extremes

State Highs State Lows

Community

WunderPhotos

Category 6

Welcome to Category 6. This is the collective home for Weather Underground's featured writeups by Dr. Jeff Masters (right), Bob Henson (left), Chris Burt, and other regular contributors.

Nearby

Air Quality

  Air Quality AQ Index Pollutant
Not available.

Snow Depth

Station Depth Elevation

Earthquake Activity

City Distance Mag. Time & Date
Minimum magnitude displayed is 2.5.

Coastal Water Temperatures

Place Temperature

Stations

Nearby Weather Stations

Station Location Temp. Windchill Dew Point Humidity Wind Precip. Elev Updated Type
                   

Watches & Warnings

There are currently no watches in effect.